Location: Vale
(35.4830°N, 81.3830°W)
Time: 09:09:42
(UTC-04:00)

Cosmos 2237 Rocket - Visible Passes

Search period start: 21 April 2015 00:00
Search period end: 01 May 2015 00:00
Orbit: 834 x 851 km, 71.0° (Epoch: 20 April)

Date Brightness Start Highest point End Pass type
(mag) Time Alt. Az. Time Alt. Az. Time Alt. Az.
23 Apr 3.2 06:07:45 10° S 06:13:11 50° ESE 06:18:42 10° NNE visible
24 Apr 3.3 05:53:01 10° S 05:58:25 47° ESE 06:03:52 10° NE visible
25 Apr 3.3 05:38:18 10° S 05:43:38 45° ESE 05:49:03 10° NE visible
26 Apr 3.4 05:23:35 10° S 05:28:51 42° ESE 05:34:13 10° NE visible
27 Apr 3.4 05:08:52 10° S 05:14:05 40° ESE 05:19:24 10° NE visible
28 Apr 3.5 04:54:09 10° S 04:59:18 38° ESE 05:04:33 10° NE visible
29 Apr 3.5 04:39:58 12° SSE 04:44:32 36° ESE 04:49:43 10° NE visible
30 Apr 3.5 04:26:06 17° SSE 04:29:45 34° ESE 04:34:52 10° NE visible
